Time,TemperatureF,DewpointF,PressureIn,WindDirection,WindDirectionDegrees,WindSpeedMPH,WindSpeedGustMPH,Humidity,HourlyPrecipIn,Conditions,Clouds,dailyrainin,SoftwareType,DateUTC
2013-02-02 00:00:00,16.6,5.1,30.09,NW,306,5.8,5.8,60,0.00,CLR,FEW,0.00,WeatherDisplay:10.37,2013-02-02 05:00:00,
2013-02-02 00:01:00,16.6,5.1,30.09,WNW,294,5.8,5.8,60,0.00,CLR,FEW,0.00,WeatherDisplay:10.37,2013-02-02 05:01:00,
2013-02-02 00:06:00,16.6,5.1,30.09,NW,314,4.6,4.6,60,0.00,CLR,FEW,0.00,WeatherDisplay:10.37,2013-02-02 05:06:00,
2013-02-02 00:11:00,16.7,5.2,30.09,WNW,301,11.0,11.0,60,0.00,CLR,FEW,0.00,WeatherDisplay:10.37,2013-02-02 05:11:00,
2013-02-02 00:16:00,16.7,5.2,30.09,WNW,300,6.0,6.0,60,0.00,CLR,FEW,0.00,WeatherDisplay:10.37,2013-02-02 05:16:00,
2013-02-02 00:21:00,16.6,5.1,30.09,NW,311,5.8,5.8,60,0.00,CLR,FEW,0.00,WeatherDisplay:10.37,2013-02-02 05:21:00,
2013-02-02 00:26:00,16.5,4.7,30.09,NW,321,4.6,4.6,59,0.00,CLR,FEW,0.00,WeatherDisplay:10.37,2013-02-02 05:26:00,
2013-02-02 00:31:00,16.4,4.9,30.09,WNW,291,5.0,5.0,60,0.00,CLR,FEW,0.00,WeatherDisplay:10.37,2013-02-02 05:31:00,
2013-02-02 00:36:00,16.4,5.3,30.09,WNW,299,4.6,4.6,61,0.00,CLR,FEW,0.00,WeatherDisplay:10.37,2013-02-02 05:36:00,
2013-02-02 00:41:00,16.3,4.5,30.09,WNW,290,8.1,8.1,59,0.00,CLR,FEW,0.00,WeatherDisplay:10.37,2013-02-02 05:41:00,
2013-02-02 00:46:00,16.3,4.8,30.09,NW,312,5.8,5.8,60,0.00,CLR,FEW,0.00,WeatherDisplay:10.37,2013-02-02 05:46:00,
2013-02-02 00:51:00,16.3,4.8,30.09,NW,304,3.5,3.5,60,0.00,CLR,FEW,0.00,WeatherDisplay:10.37,2013-02-02 05:51:00,
2013-02-02 00:56:00,16.2,4.7,30.09,WNW,294,3.5,3.5,60,0.00,CLR,FEW,0.00,WeatherDisplay:10.37,2013-02-02 05:56:00,
2013-02-02 01:01:00,16.2,4.7,30.10,NW,320,3.5,3.5,60,0.00,CLR,FEW,0.00,WeatherDisplay:10.37,2013-02-02 06:01:00,
2013-02-02 01:06:00,16.1,4.3,30.10,WNW,289,11.5,11.5,59,0.00,CLR,FEW,0.00,WeatherDisplay:10.37,2013-02-02 06:06:00,
2013-02-02 01:11:00,16.1,5.4,30.11,WNW,296,3.5,3.5,62,0.00,CLR,FEW,0.00,WeatherDisplay:10.37,2013-02-02 06:11:00,
2013-02-02 01:16:00,16.0,5.3,30.11,SSW,204,3.5,3.5,62,0.00,CLR,FEW,0.00,WeatherDisplay:10.37,2013-02-02 06:16:00,
2013-02-02 01:21:00,15.9,4.4,30.11,NW,311,4.6,4.6,60,0.00,CLR,FEW,0.00,WeatherDisplay:10.37,2013-02-02 06:21:00,
2013-02-02 01:26:00,15.8,4.4,30.11,NNW,348,5.0,5.0,60,0.00,CLR,FEW,0.00,WeatherDisplay:10.37,2013-02-02 06:26:00,
2013-02-02 01:31:00,15.7,5.0,30.11,West,275,4.6,4.6,62,0.00,CLR,FEW,0.00,WeatherDisplay:10.37,2013-02-02 06:31:00,
2013-02-02 01:36:00,15.6,4.9,30.12,WNW,300,5.0,5.0,62,0.00,CLR,FEW,0.00,WeatherDisplay:10.37,2013-02-02 06:36:00,
2013-02-02 01:41:00,15.5,5.1,30.12,WNW,296,2.3,2.3,63,0.00,CLR,FEW,0.00,WeatherDisplay:10.37,2013-02-02 06:41:00,
2013-02-02 01:46:00,15.4,5.4,30.13,NW,324,2.3,2.3,64,0.00,CLR,FEW,0.00,WeatherDisplay:10.37,2013-02-02 06:46:00,
2013-02-02 01:51:00,15.3,4.9,30.13,NW,316,3.5,3.5,63,0.00,CLR,FEW,0.00,WeatherDisplay:10.37,2013-02-02 06:51:00,
2013-02-02 01:56:00,15.1,4.8,30.13,NW,321,4.0,4.0,63,0.00,CLR,FEW,0.00,WeatherDisplay:10.37,2013-02-02 06:56:00,
2013-02-02 02:01:00,15.0,5.7,30.13,WNW,297,3.5,3.5,66,0.00,CLR,FEW,0.00,WeatherDisplay:10.37,2013-02-02 07:01:00,
2013-02-02 02:06:00,14.9,5.6,30.13,NW,304,4.6,4.6,66,0.00,CLR,FEW,0.00,WeatherDisplay:10.37,2013-02-02 07:06:00,
2013-02-02 02:11:00,14.8,5.5,30.13,NW,305,3.5,3.5,66,0.00,CLR,FEW,0.00,WeatherDisplay:10.37,2013-02-02 07:11:00,
2013-02-02 02:16:00,14.6,5.3,30.14,NW,313,3.5,3.5,66,0.00,CLR,FEW,0.00,WeatherDisplay:10.37,2013-02-02 07:16:00,
2013-02-02 02:21:00,14.5,5.5,30.13,NW,313,2.3,2.3,67,0.00,CLR,FEW,0.00,WeatherDisplay:10.37,2013-02-02 07:21:00,
2013-02-02 02:26:00,14.4,5.4,30.14,NW,306,5.8,5.8,67,0.00,CLR,FEW,0.00,WeatherDisplay:10.37,2013-02-02 07:26:00,
2013-02-02 02:31:00,14.3,5.3,30.13,NW,319,2.3,2.3,67,0.00,CLR,FEW,0.00,WeatherDisplay:10.37,2013-02-02 07:31:00,
2013-02-02 02:36:00,14.3,5.3,30.14,WNW,301,3.5,3.5,67,0.00,CLR,FEW,0.00,WeatherDisplay:10.37,2013-02-02 07:36:00,
2013-02-02 02:41:00,14.1,5.1,30.14,WNW,296,2.3,2.3,67,0.00,CLR,FEW,0.00,WeatherDisplay:10.37,2013-02-02 07:41:00,
2013-02-02 02:46:00,14.0,5.1,30.14,WNW,296,3.5,3.5,67,0.00,CLR,FEW,0.00,WeatherDisplay:10.37,2013-02-02 07:46:00,
2013-02-02 02:51:00,14.0,5.1,30.14,WNW,296,3.5,3.5,67,0.00,CLR,FEW,0.00,WeatherDisplay:10.37,2013-02-02 07:51:00,
2013-02-02 02:56:00,13.9,4.6,30.14,WNW,298,4.6,4.6,66,0.00,CLR,FEW,0.00,WeatherDisplay:10.37,2013-02-02 07:56:00,
2013-02-02 03:01:00,13.9,4.3,30.14,WNW,301,3.5,3.5,65,0.00,CLR,FEW,0.00,WeatherDisplay:10.37,2013-02-02 08:01:00,
2013-02-02 03:06:00,13.7,4.4,30.14,WNW,301,1.2,1.2,66,0.00,CLR,FEW,0.00,WeatherDisplay:10.37,2013-02-02 08:06:00,
2013-02-02 03:11:00,13.6,4.3,30.14,WNW,301,2.3,2.3,66,0.00,CLR,FEW,0.00,WeatherDisplay:10.37,2013-02-02 08:11:00,
2013-02-02 03:16:00,13.5,4.2,30.14,WNW,303,5.8,5.8,66,0.00,CLR,FEW,0.00,WeatherDisplay:10.37,2013-02-02 08:16:00,
2013-02-02 03:21:00,13.5,4.2,30.14,WNW,303,2.3,2.3,66,0.00,CLR,FEW,0.00,WeatherDisplay:10.37,2013-02-02 08:21:00,
2013-02-02 03:26:00,13.5,4.6,30.15,NW,305,2.0,2.0,67,0.00,CLR,FEW,0.00,WeatherDisplay:10.37,2013-02-02 08:26:00,
2013-02-02 03:31:00,13.4,4.1,30.15,WNW,294,3.5,3.5,66,0.00,CLR,FEW,0.00,WeatherDisplay:10.37,2013-02-02 08:31:00,
2013-02-02 03:36:00,13.4,4.1,30.15,NW,311,2.3,2.3,66,0.00,CLR,FEW,0.00,WeatherDisplay:10.37,2013-02-02 08:36:00,
2013-02-02 03:41:00,13.4,4.5,30.15,NW,304,2.3,2.3,67,0.00,CLR,FEW,0.00,WeatherDisplay:10.37,2013-02-02 08:41:00,
2013-02-02 03:46:00,13.2,4.3,30.15,WNW,303,3.5,3.5,67,0.00,CLR,FEW,0.00,WeatherDisplay:10.37,2013-02-02 08:46:00,
2013-02-02 03:51:00,13.3,4.4,30.15,West,263,3.5,3.5,67,0.00,CLR,FEW,0.00,WeatherDisplay:10.37,2013-02-02 08:51:00,
2013-02-02 03:56:00,13.2,4.0,30.16,NW,310,2.3,2.3,66,0.00,CLR,FEW,0.00,WeatherDisplay:10.37,2013-02-02 08:56:00,
2013-02-02 04:01:00,13.1,3.9,30.15,West,269,1.2,1.2,66,0.00,CLR,FEW,0.00,WeatherDisplay:10.37,2013-02-02 09:01:00,
2013-02-02 04:06:00,13.0,3.8,30.16,West,269,2.3,2.3,66,0.00,CLR,FEW,0.00,WeatherDisplay:10.37,2013-02-02 09:06:00,
2013-02-02 04:11:00,12.9,3.7,30.16,WNW,286,2.3,2.3,66,0.00,CLR,FEW,0.00,WeatherDisplay:10.37,2013-02-02 09:11:00,
2013-02-02 04:16:00,12.8,3.6,30.16,WNW,282,2.3,2.3,66,0.00,CLR,FEW,0.00,WeatherDisplay:10.37,2013-02-02 09:16:00,
2013-02-02 04:21:00,12.8,3.6,30.16,West,265,2.3,2.3,66,0.00,CLR,FEW,0.00,WeatherDisplay:10.37,2013-02-02 09:21:00,
2013-02-02 04:26:00,12.8,3.6,30.17,NW,309,2.3,2.3,66,0.00,CLR,FEW,0.00,WeatherDisplay:10.37,2013-02-02 09:26:00,
2013-02-02 04:31:00,12.8,3.9,30.17,WNW,294,1.2,1.2,67,0.00,CLR,FEW,0.00,WeatherDisplay:10.37,2013-02-02 09:31:00,
2013-02-02 04:36:00,12.8,4.2,30.17,NW,311,3.0,0.0,68,0.00,CLR,FEW,0.00,WeatherDisplay:10.37,2013-02-02 09:36:00,
2013-02-02 04:41:00,12.6,3.7,30.18,WNW,298,2.3,2.3,67,0.00,CLR,FEW,0.00,WeatherDisplay:10.37,2013-02-02 09:41:00,
2013-02-02 04:46:00,12.5,3.9,30.17,WNW,298,2.3,2.3,68,0.00,CLR,FEW,0.00,WeatherDisplay:10.37,2013-02-02 09:46:00,
2013-02-02 04:51:00,12.4,4.2,30.17,WNW,298,2.3,2.3,69,0.00,CLR,FEW,0.00,WeatherDisplay:10.37,2013-02-02 09:51:00,
2013-02-02 04:56:00,12.2,4.3,30.17,WNW,298,1.2,1.2,70,0.00,CLR,FEW,0.00,WeatherDisplay:10.37,2013-02-02 09:56:00,
2013-02-02 05:01:00,12.1,4.5,30.18,WNW,298,2.3,2.3,71,0.00,CLR,FEW,0.00,WeatherDisplay:10.37,2013-02-02 10:01:00,
2013-02-02 05:06:00,12.0,4.7,30.18,WNW,298,1.2,1.2,72,0.00,CLR,FEW,0.00,WeatherDisplay:10.37,2013-02-02 10:06:00,
2013-02-02 05:11:00,12.1,4.5,30.18,WNW,300,3.5,3.5,71,0.00,CLR,FEW,0.00,WeatherDisplay:10.37,2013-02-02 10:11:00,
2013-02-02 05:16:00,12.0,4.7,30.18,WNW,300,1.2,0.0,72,0.00,CLR,FEW,0.00,WeatherDisplay:10.37,2013-02-02 10:16:00,
2013-02-02 05:21:00,11.9,4.6,30.18,WNW,300,1.2,1.2,72,0.00,CLR,FEW,0.00,WeatherDisplay:10.37,2013-02-02 10:21:00,
2013-02-02 05:26:00,11.8,4.5,30.18,NW,306,3.5,3.5,72,0.00,CLR,FEW,0.00,WeatherDisplay:10.37,2013-02-02 10:26:00,
2013-02-02 05:31:00,11.6,4.3,30.18,NW,305,3.5,3.5,72,0.00,CLR,FEW,0.00,WeatherDisplay:10.37,2013-02-02 10:31:00,
2013-02-02 05:36:00,11.5,4.5,30.17,WNW,298,3.5,3.5,73,0.00,CLR,FEW,0.00,WeatherDisplay:10.37,2013-02-02 10:36:00,
2013-02-02 05:41:00,11.4,4.4,30.18,WNW,298,2.3,2.3,73,0.00,CLR,FEW,0.00,WeatherDisplay:10.37,2013-02-02 10:41:00,
2013-02-02 05:46:00,11.4,4.4,30.18,WNW,298,2.3,2.3,73,0.00,CLR,FEW,0.00,WeatherDisplay:10.37,2013-02-02 10:46:00,
2013-02-02 05:51:00,11.3,4.0,30.18,WNW,298,3.5,3.5,72,0.00,CLR,FEW,0.00,WeatherDisplay:10.37,2013-02-02 10:51:00,
2013-02-02 05:56:00,11.3,4.3,30.18,WNW,298,1.2,1.2,73,0.00,CLR,FEW,0.00,WeatherDisplay:10.37,2013-02-02 10:56:00,
2013-02-02 06:01:00,11.1,4.1,30.18,WNW,298,1.2,1.2,73,0.00,CLR,FEW,0.00,WeatherDisplay:10.37,2013-02-02 11:01:00,
2013-02-02 06:06:00,11.0,4.0,30.18,WNW,298,0.0,0.0,73,0.00,CLR,FEW,0.00,WeatherDisplay:10.37,2013-02-02 11:06:00,
2013-02-02 06:11:00,11.0,4.3,30.18,WNW,298,0.0,0.0,74,0.00,CLR,FEW,0.00,WeatherDisplay:10.37,2013-02-02 11:11:00,
2013-02-02 06:16:00,10.8,3.8,30.19,WNW,298,0.0,0.0,73,0.00,CLR,FEW,0.00,WeatherDisplay:10.37,2013-02-02 11:16:00,
2013-02-02 06:21:00,10.7,3.7,30.19,WNW,298,1.2,0.0,73,0.00,CLR,FEW,0.00,WeatherDisplay:10.37,2013-02-02 11:21:00,
2013-02-02 06:26:00,10.6,3.9,30.20,WNW,298,0.0,0.0,74,0.00,CLR,FEW,0.00,WeatherDisplay:10.37,2013-02-02 11:26:00,
2013-02-02 06:31:00,10.5,3.8,30.20,WNW,298,0.0,0.0,74,0.00,CLR,FEW,0.00,WeatherDisplay:10.37,2013-02-02 11:31:00,
2013-02-02 06:36:00,10.5,4.1,30.20,WNW,298,0.0,0.0,75,0.00,CLR,FEW,0.00,WeatherDisplay:10.37,2013-02-02 11:36:00,
2013-02-02 06:41:00,10.4,3.8,30.20,WNW,298,0.0,0.0,74,0.00,CLR,FEW,0.00,WeatherDisplay:10.37,2013-02-02 11:41:00,
2013-02-02 06:46:00,10.3,3.9,30.20,WNW,298,0.0,0.0,75,0.00,CLR,FEW,0.00,WeatherDisplay:10.37,2013-02-02 11:46:00,
2013-02-02 06:51:00,10.2,3.8,30.20,WNW,298,0.0,0.0,75,0.00,CLR,FEW,0.00,WeatherDisplay:10.37,2013-02-02 11:51:00,
2013-02-02 06:56:00,10.0,3.7,30.20,WNW,298,0.0,0.0,75,0.00,CLR,FEW,0.00,WeatherDisplay:10.37,2013-02-02 11:56:00,
2013-02-02 07:01:00,9.9,3.8,30.20,WNW,298,0.0,0.0,76,0.00,CLR,FEW,0.00,WeatherDisplay:10.37,2013-02-02 12:01:00,
2013-02-02 07:06:00,9.7,3.7,30.20,WNW,298,0.0,0.0,76,0.00,CLR,FEW,0.00,WeatherDisplay:10.37,2013-02-02 12:06:00,
2013-02-02 07:11:00,9.5,3.5,30.20,WNW,298,0.0,0.0,76,0.00,CLR,FEW,0.00,WeatherDisplay:10.37,2013-02-02 12:11:00,
2013-02-02 07:16:00,9.4,3.4,30.20,WNW,298,0.0,0.0,76,0.00,CLR,FEW,0.00,WeatherDisplay:10.37,2013-02-02 12:16:00,
2013-02-02 07:21:00,9.2,3.4,30.21,WNW,298,0.0,0.0,77,0.00,CLR,FEW,0.00,WeatherDisplay:10.37,2013-02-02 12:21:00,
2013-02-02 07:26:00,9.2,3.4,30.21,WNW,298,0.0,0.0,77,0.00,CLR,FEW,0.00,WeatherDisplay:10.37,2013-02-02 12:26:00,
2013-02-02 07:31:00,9.1,3.6,30.22,WNW,298,0.0,0.0,78,0.00,CLR,FEW,0.00,WeatherDisplay:10.37,2013-02-02 12:31:00,
2013-02-02 07:36:00,9.1,3.9,30.22,WNW,298,0.0,0.0,79,0.00,CLR,FEW,0.00,WeatherDisplay:10.37,2013-02-02 12:36:00,
2013-02-02 07:41:00,9.2,4.0,30.22,WNW,298,0.0,0.0,79,0.00,CLR,FEW,0.00,WeatherDisplay:10.37,2013-02-02 12:41:00,
2013-02-02 07:46:00,9.4,4.5,30.22,WNW,298,0.0,0.0,80,0.00,CLR,FEW,0.00,WeatherDisplay:10.37,2013-02-02 12:46:00,
2013-02-02 07:51:00,9.5,4.3,30.22,WNW,296,0.0,0.0,79,0.00,CLR,FEW,0.00,WeatherDisplay:10.37,2013-02-02 12:51:00,
2013-02-02 07:56:00,9.7,4.8,30.22,WNW,296,0.0,0.0,80,0.00,CLR,FEW,0.00,WeatherDisplay:10.37,2013-02-02 12:56:00,
2013-02-02 08:01:00,10.0,4.8,30.22,WNW,296,0.0,0.0,79,0.00,CLR,FEW,0.00,WeatherDisplay:10.37,2013-02-02 13:01:00,
2013-02-02 08:06:00,10.3,4.8,30.23,WNW,296,0.0,0.0,78,0.00,CLR,FEW,0.00,WeatherDisplay:10.37,2013-02-02 13:06:00,
2013-02-02 08:11:00,10.6,4.5,30.23,WNW,296,0.0,0.0,76,0.00,CLR,FEW,0.00,WeatherDisplay:10.37,2013-02-02 13:11:00,
2013-02-02 08:17:00,11.0,4.9,30.23,WNW,296,0.0,0.0,76,0.00,CLR,FEW,0.00,WeatherDisplay:10.37,2013-02-02 13:17:00,
2013-02-02 08:22:00,11.3,4.6,30.23,WNW,296,1.2,1.2,74,0.00,CLR,FEW,0.00,WeatherDisplay:10.37,2013-02-02 13:22:00,
2013-02-02 08:27:00,11.6,4.6,30.23,WNW,296,1.2,1.2,73,0.00,CLR,FEW,0.00,WeatherDisplay:10.37,2013-02-02 13:27:00,
2013-02-02 08:32:00,12.2,4.6,30.23,WNW,295,1.2,1.2,71,0.00,CLR,FEW,0.00,WeatherDisplay:10.37,2013-02-02 13:32:00,
2013-02-02 08:37:00,12.7,4.4,30.23,SSW,206,1.2,1.2,69,0.00,CLR,FEW,0.00,WeatherDisplay:10.37,2013-02-02 13:37:00,
2013-02-02 08:42:00,13.3,4.7,30.23,SSW,206,1.2,1.2,68,0.00,CLR,FEW,0.00,WeatherDisplay:10.37,2013-02-02 13:42:00,
2013-02-02 08:47:00,13.7,4.4,30.23,SSW,206,1.2,0.0,66,0.00,CLR,FEW,0.00,WeatherDisplay:10.37,2013-02-02 13:47:00,
2013-02-02 08:52:00,14.1,4.8,30.23,SE,126,0.0,0.0,66,0.00,CLR,FEW,0.00,WeatherDisplay:10.37,2013-02-02 13:52:00,
2013-02-02 08:57:00,14.3,4.3,30.23,WSW,251,0.0,0.0,64,0.00,CLR,FEW,0.00,WeatherDisplay:10.37,2013-02-02 13:57:00,
2013-02-02 09:02:00,14.4,4.8,30.23,South,174,1.0,1.0,65,0.00,CLR,FEW,0.00,WeatherDisplay:10.37,2013-02-02 14:02:00,
2013-02-02 09:07:00,14.5,4.5,30.23,SSW,192,1.2,1.2,64,0.00,CLR,FEW,0.00,WeatherDisplay:10.37,2013-02-02 14:07:00,
2013-02-02 09:13:00,14.9,4.9,30.23,North,355,1.2,1.2,64,0.00,CLR,FEW,0.00,WeatherDisplay:10.37,2013-02-02 14:13:00,
2013-02-02 09:18:00,15.2,4.5,30.23,West,267,3.5,3.5,62,0.00,CLR,FEW,0.00,WeatherDisplay:10.37,2013-02-02 14:18:00,
2013-02-02 09:23:00,15.4,4.7,30.23,South,178,5.8,5.8,62,0.00,CLR,FEW,0.00,WeatherDisplay:10.37,2013-02-02 14:23:00,
2013-02-02 09:28:00,15.6,4.9,30.23,South,190,2.3,2.3,62,0.00,CLR,FEW,0.00,WeatherDisplay:10.37,2013-02-02 14:28:00,
2013-02-02 09:33:00,15.7,4.6,30.23,South,190,2.3,2.3,61,0.00,CLR,FEW,0.00,WeatherDisplay:10.37,2013-02-02 14:33:00,
2013-02-02 09:38:00,15.8,5.1,30.23,South,176,3.5,3.5,62,0.00,CLR,FEW,0.00,WeatherDisplay:10.37,2013-02-02 14:38:00,
2013-02-02 09:43:00,16.2,5.5,30.23,NW,317,3.5,3.5,62,0.00,CLR,FEW,0.00,WeatherDisplay:10.37,2013-02-02 14:43:00,
2013-02-02 09:48:00,16.4,5.3,30.22,ENE,62,2.3,2.3,61,0.00,CLR,FEW,0.00,WeatherDisplay:10.37,2013-02-02 14:48:00,
2013-02-02 09:53:00,16.8,5.7,30.22,NE,51,1.0,1.0,61,0.00,CLR,FEW,0.00,WeatherDisplay:10.37,2013-02-02 14:53:00,
2013-02-02 09:58:00,17.2,5.7,30.22,East,101,3.5,3.5,60,0.00,CLR,FEW,0.00,WeatherDisplay:10.37,2013-02-02 14:58:00,
2013-02-02 10:03:00,17.9,6.3,30.22,SSE,162,2.0,2.0,60,0.00,CLR,FEW,0.00,WeatherDisplay:10.37,2013-02-02 15:03:00,
2013-02-02 10:07:00,18.4,6.4,30.22,SSW,194,1.2,1.2,59,0.00,CLR,FEW,0.00,WeatherDisplay:10.37,2013-02-02 15:07:00,
2013-02-02 10:12:00,18.3,6.0,30.22,NNW,328,2.3,2.3,58,0.00,CLR,FEW,0.00,WeatherDisplay:10.37,2013-02-02 15:12:00,
2013-02-02 10:17:00,18.4,6.1,30.22,NW,317,3.5,3.5,58,0.00,CLR,FEW,0.00,WeatherDisplay:10.37,2013-02-02 15:17:00,
2013-02-02 10:22:00,18.7,6.0,30.22,NW,323,4.0,4.0,57,0.00,CLR,FEW,0.00,WeatherDisplay:10.37,2013-02-02 15:22:00,
2013-02-02 10:28:00,19.0,6.6,30.22,SSW,213,2.3,2.3,58,0.00,CLR,FEW,0.00,WeatherDisplay:10.37,2013-02-02 15:28:00,
2013-02-02 10:33:00,19.2,6.4,30.21,West,281,2.3,2.3,57,0.00,CLR,FEW,0.00,WeatherDisplay:10.37,2013-02-02 15:33:00,
2013-02-02 10:38:00,19.2,6.1,30.21,East,83,2.3,2.3,56,0.00,CLR,FEW,0.00,WeatherDisplay:10.37,2013-02-02 15:38:00,
2013-02-02 10:43:00,19.4,6.2,30.21,NW,314,2.3,2.3,56,0.00,CLR,FEW,0.00,WeatherDisplay:10.37,2013-02-02 15:43:00,
2013-02-02 10:48:00,19.6,6.4,30.21,NNW,336,2.3,2.3,56,0.00,CLR,FEW,0.00,WeatherDisplay:10.37,2013-02-02 15:48:00,
2013-02-02 10:53:00,19.6,6.8,30.21,North,5,2.3,2.3,57,0.00,CLR,FEW,0.00,WeatherDisplay:10.37,2013-02-02 15:53:00,
2013-02-02 10:58:00,19.6,6.4,30.20,West,269,3.5,3.5,56,0.00,CLR,FEW,0.00,WeatherDisplay:10.37,2013-02-02 15:58:00,
2013-02-02 11:03:00,19.7,6.5,30.20,NW,323,3.5,3.5,56,0.00,CLR,FEW,0.00,WeatherDisplay:10.37,2013-02-02 16:03:00,
2013-02-02 11:08:00,19.9,7.1,30.19,NW,306,3.5,0.0,57,0.00,CLR,FEW,0.00,WeatherDisplay:10.37,2013-02-02 16:08:00,
2013-02-02 11:13:00,19.9,6.7,30.19,ESE,105,3.5,3.5,56,0.00,CLR,FEW,0.00,WeatherDisplay:10.37,2013-02-02 16:13:00,
2013-02-02 11:18:00,20.5,7.7,30.19,SW,219,3.5,0.0,57,0.00,CLR,FEW,0.00,WeatherDisplay:10.37,2013-02-02 16:18:00,
2013-02-02 11:23:00,21.0,7.7,30.19,North,350,3.5,3.5,56,0.00,CLR,FEW,0.00,WeatherDisplay:10.37,2013-02-02 16:23:00,
2013-02-02 11:28:00,21.3,7.6,30.19,South,176,4.0,4.0,55,0.00,CLR,FEW,0.00,WeatherDisplay:10.37,2013-02-02 16:28:00,
2013-02-02 11:32:00,21.3,7.6,30.19,NNW,348,3.5,3.5,55,0.00,CLR,FEW,0.00,WeatherDisplay:10.37,2013-02-02 16:32:00,
2013-02-02 11:37:00,21.3,7.2,30.18,North,360,3.5,3.5,54,0.00,CLR,FEW,0.00,WeatherDisplay:10.37,2013-02-02 16:37:00,
2013-02-02 11:42:00,21.4,7.7,30.18,NNW,340,2.0,2.0,55,0.00,CLR,FEW,0.00,WeatherDisplay:10.37,2013-02-02 16:42:00,
2013-02-02 11:47:00,21.5,7.8,30.17,North,5,6.9,6.9,55,0.00,CLR,FEW,0.00,WeatherDisplay:10.37,2013-02-02 16:47:00,
2013-02-02 11:52:00,21.6,7.5,30.17,SE,145,5.0,5.0,54,0.00,CLR,FEW,0.00,WeatherDisplay:10.37,2013-02-02 16:52:00,
2013-02-02 11:57:00,21.7,7.6,30.17,SSW,193,4.6,4.6,54,0.00,CLR,FEW,0.00,WeatherDisplay:10.37,2013-02-02 16:57:00,
2013-02-02 12:02:00,21.8,7.7,30.16,NE,45,2.3,2.3,54,0.00,CLR,FEW,0.00,WeatherDisplay:10.37,2013-02-02 17:02:00,
2013-02-02 12:07:00,22.2,8.5,30.16,ENE,64,1.2,1.3,55,0.00,CLR,FEW,0.00,WeatherDisplay:10.37,2013-02-02 17:07:00,
2013-02-02 12:12:00,22.9,8.3,30.15,SSE,167,4.0,4.0,53,0.00,CLR,FEW,0.00,WeatherDisplay:10.37,2013-02-02 17:12:00,
2013-02-02 12:17:00,23.3,8.2,30.15,NNW,327,7.0,7.0,52,0.00,CLR,FEW,0.00,WeatherDisplay:10.37,2013-02-02 17:17:00,
2013-02-02 12:22:00,23.1,8.1,30.15,NNE,24,3.5,3.5,52,0.00,CLR,FEW,0.00,WeatherDisplay:10.37,2013-02-02 17:22:00,
2013-02-02 12:27:00,23.1,8.1,30.15,NE,55,3.5,3.5,52,0.00,CLR,FEW,0.00,WeatherDisplay:10.37,2013-02-02 17:27:00,
2013-02-02 12:32:00,23.0,8.0,30.14,NW,311,2.3,2.3,52,0.00,CLR,FEW,0.00,WeatherDisplay:10.37,2013-02-02 17:32:00,
2013-02-02 12:37:00,23.0,8.4,30.14,SE,136,2.3,2.3,53,0.00,CLR,FEW,0.00,WeatherDisplay:10.37,2013-02-02 17:37:00,
2013-02-02 12:42:00,23.0,8.8,30.14,WNW,299,4.6,4.6,54,0.00,CLR,FEW,0.00,WeatherDisplay:10.37,2013-02-02 17:42:00,
2013-02-02 12:47:00,23.5,8.4,30.13,ENE,60,5.8,5.8,52,0.00,CLR,FEW,0.00,WeatherDisplay:10.37,2013-02-02 17:47:00,
2013-02-02 12:52:00,23.5,8.4,30.14,SSW,202,3.5,3.5,52,0.00,CLR,FEW,0.00,WeatherDisplay:10.37,2013-02-02 17:52:00,
2013-02-02 12:57:00,23.2,8.2,30.14,ESE,113,4.0,4.0,52,0.00,CLR,FEW,0.00,WeatherDisplay:10.37,2013-02-02 17:57:00,
2013-02-02 13:02:00,23.0,8.0,30.14,East,84,3.0,3.0,52,0.00,CLR,FEW,0.00,WeatherDisplay:10.37,2013-02-02 18:02:00,
2013-02-02 13:07:00,23.1,8.9,30.13,SE,144,5.0,5.0,54,0.00,CLR,FEW,0.00,WeatherDisplay:10.37,2013-02-02 18:07:00,
2013-02-02 13:12:00,23.4,8.8,30.13,NE,52,6.9,6.9,53,0.00,CLR,FEW,0.00,WeatherDisplay:10.37,2013-02-02 18:12:00,
2013-02-02 13:17:00,23.2,8.6,30.13,NE,35,3.5,3.5,53,0.00,CLR,FEW,0.00,WeatherDisplay:10.37,2013-02-02 18:17:00,
2013-02-02 13:22:00,23.1,8.1,30.13,SSW,206,4.0,4.0,52,0.00,CLR,FEW,0.00,WeatherDisplay:10.37,2013-02-02 18:22:00,
2013-02-02 13:27:00,23.1,8.1,30.12,NNW,336,4.6,4.6,52,0.00,CLR,FEW,0.00,WeatherDisplay:10.37,2013-02-02 18:27:00,
2013-02-02 13:32:00,22.9,7.9,30.12,North,5,5.8,5.8,52,0.00,CLR,FEW,0.00,WeatherDisplay:10.37,2013-02-02 18:32:00,
2013-02-02 13:37:00,22.9,8.3,30.12,ENE,76,3.0,3.0,53,0.00,CLR,FEW,0.00,WeatherDisplay:10.37,2013-02-02 18:37:00,
2013-02-02 13:42:00,22.9,8.3,30.12,ESE,109,3.5,3.5,53,0.00,CLR,FEW,0.00,WeatherDisplay:10.37,2013-02-02 18:42:00,
2013-02-02 13:47:00,22.9,8.7,30.11,East,81,2.3,2.3,54,0.00,CLR,FEW,0.00,WeatherDisplay:10.37,2013-02-02 18:47:00,
2013-02-02 13:52:00,23.1,8.9,30.11,ESE,123,5.0,5.0,54,0.00,CLR,FEW,0.00,WeatherDisplay:10.37,2013-02-02 18:52:00,
2013-02-02 13:57:00,23.4,9.6,30.11,SE,130,2.3,2.3,55,0.00,CLR,FEW,0.00,WeatherDisplay:10.37,2013-02-02 18:57:00,
2013-02-02 14:02:00,23.6,9.4,30.10,ENE,76,3.5,3.5,54,0.00,CLR,FEW,0.00,WeatherDisplay:10.37,2013-02-02 19:02:00,
2013-02-02 14:07:00,23.8,10.0,30.10,ESE,123,3.5,3.5,55,0.00,CLR,FEW,0.00,WeatherDisplay:10.37,2013-02-02 19:07:00,
2013-02-02 14:12:00,23.9,9.6,30.10,SE,128,3.5,3.5,54,0.00,CLR,FEW,0.00,WeatherDisplay:10.37,2013-02-02 19:12:00,
2013-02-02 14:17:00,23.8,9.6,30.09,SSE,149,5.8,5.8,54,0.00,CLR,FEW,0.00,WeatherDisplay:10.37,2013-02-02 19:17:00,
2013-02-02 14:22:00,23.9,9.2,30.09,SE,124,3.5,3.5,53,0.00,CLR,FEW,0.00,WeatherDisplay:10.37,2013-02-02 19:22:00,
2013-02-02 14:27:00,23.9,8.8,30.10,NE,47,1.2,1.7,52,0.00,CLR,FEW,0.00,WeatherDisplay:10.37,2013-02-02 19:27:00,
2013-02-02 14:32:00,23.8,9.6,30.09,NW,317,3.5,3.5,54,0.00,CLR,FEW,0.00,WeatherDisplay:10.37,2013-02-02 19:32:00,
2013-02-02 14:37:00,23.7,9.5,30.09,South,171,2.3,2.3,54,0.00,CLR,FEW,0.00,WeatherDisplay:10.37,2013-02-02 19:37:00,
2013-02-02 14:42:00,23.5,9.3,30.09,South,171,2.3,2.3,54,0.00,CLR,FEW,0.00,WeatherDisplay:10.37,2013-02-02 19:42:00,
2013-02-02 14:47:00,23.5,9.3,30.09,SE,124,3.5,3.5,54,0.00,CLR,FEW,0.00,WeatherDisplay:10.37,2013-02-02 19:47:00,
2013-02-02 14:52:00,23.6,9.4,30.09,SSE,162,5.8,5.8,54,0.00,CLR,FEW,0.00,WeatherDisplay:10.37,2013-02-02 19:52:00,
2013-02-02 14:57:00,23.6,9.4,30.09,ESE,119,1.2,1.2,54,0.00,CLR,FEW,0.00,WeatherDisplay:10.37,2013-02-02 19:57:00,
2013-02-02 15:02:00,23.7,9.5,30.09,SSW,207,3.5,3.5,54,0.00,CLR,FEW,0.00,WeatherDisplay:10.37,2013-02-02 20:02:00,
2013-02-02 15:07:00,23.8,10.0,30.08,SE,132,2.3,2.3,55,0.00,CLR,FEW,0.00,WeatherDisplay:10.37,2013-02-02 20:07:00,
2013-02-02 15:12:00,23.9,10.1,30.08,SSE,155,4.6,4.6,55,0.00,CLR,FEW,0.00,WeatherDisplay:10.37,2013-02-02 20:12:00,
2013-02-02 15:17:00,23.9,9.2,30.08,WSW,241,3.5,3.6,53,0.00,CLR,FEW,0.00,WeatherDisplay:10.37,2013-02-02 20:17:00,
2013-02-02 15:22:00,23.8,9.6,30.08,SW,219,3.5,3.5,54,0.00,CLR,FEW,0.00,WeatherDisplay:10.37,2013-02-02 20:22:00,
2013-02-02 15:27:00,23.8,9.6,30.08,SSE,153,7.0,7.0,54,0.00,CLR,FEW,0.00,WeatherDisplay:10.37,2013-02-02 20:27:00,
2013-02-02 15:32:00,23.8,9.1,30.08,East,81,3.5,3.5,53,0.00,CLR,FEW,0.00,WeatherDisplay:10.37,2013-02-02 20:32:00,
2013-02-02 15:37:00,23.8,9.6,30.08,NW,309,3.5,3.5,54,0.00,CLR,FEW,0.00,WeatherDisplay:10.37,2013-02-02 20:37:00,
2013-02-02 15:42:00,23.8,9.6,30.08,NNE,12,1.2,1.2,54,0.00,CLR,FEW,0.00,WeatherDisplay:10.37,2013-02-02 20:42:00,
2013-02-02 15:47:00,23.7,9.5,30.08,NW,319,3.0,3.0,54,0.00,CLR,FEW,0.00,WeatherDisplay:10.37,2013-02-02 20:47:00,
2013-02-02 15:52:00,23.7,9.5,30.08,SW,232,3.5,3.5,54,0.00,CLR,FEW,0.00,WeatherDisplay:10.37,2013-02-02 20:52:00,
2013-02-02 15:57:00,23.6,9.4,30.08,ESE,112,1.2,1.2,54,0.00,CLR,FEW,0.00,WeatherDisplay:10.37,2013-02-02 20:57:00,
2013-02-02 16:02:00,23.6,9.8,30.07,SSW,200,9.2,9.2,55,0.00,CLR,FEW,0.00,WeatherDisplay:10.37,2013-02-02 21:02:00,
2013-02-02 16:07:00,23.5,8.9,30.07,SSE,150,2.3,2.3,53,0.00,CLR,FEW,0.00,WeatherDisplay:10.37,2013-02-02 21:07:00,
2013-02-02 16:12:00,23.4,9.2,30.07,ESE,118,1.2,1.2,54,0.00,CLR,FEW,0.00,WeatherDisplay:10.37,2013-02-02 21:12:00,
2013-02-02 16:17:00,23.3,9.1,30.07,SE,130,1.2,1.2,54,0.00,CLR,FEW,0.00,WeatherDisplay:10.37,2013-02-02 21:17:00,
2013-02-02 16:22:00,23.3,9.5,30.07,SE,130,2.0,2.0,55,0.00,CLR,FEW,0.00,WeatherDisplay:10.37,2013-02-02 21:22:00,
2013-02-02 16:27:00,23.2,8.6,30.07,SSE,153,6.9,6.9,53,0.00,CLR,FEW,0.00,WeatherDisplay:10.37,2013-02-02 21:27:00,
2013-02-02 16:32:00,23.1,8.9,30.06,ENE,60,4.6,4.6,54,0.00,CLR,FEW,0.00,WeatherDisplay:10.37,2013-02-02 21:32:00,
2013-02-02 16:37:00,23.0,8.8,30.06,South,171,2.3,2.3,54,0.00,CLR,FEW,0.00,WeatherDisplay:10.37,2013-02-02 21:37:00,
2013-02-02 16:42:00,23.0,9.2,30.06,South,171,1.2,0.0,55,0.00,CLR,FEW,0.00,WeatherDisplay:10.37,2013-02-02 21:42:00,
2013-02-02 16:47:00,22.9,9.5,30.06,South,171,1.2,1.2,56,0.00,CLR,FEW,0.00,WeatherDisplay:10.37,2013-02-02 21:47:00,
2013-02-02 16:52:00,22.9,9.1,30.06,East,85,2.3,2.3,55,0.00,CLR,FEW,0.00,WeatherDisplay:10.37,2013-02-02 21:52:00,
2013-02-02 16:57:00,22.8,9.0,30.06,SE,138,3.5,3.5,55,0.00,CLR,FEW,0.00,WeatherDisplay:10.37,2013-02-02 21:57:00,
2013-02-02 20:32:00,21.4,10.0,30.06,ESE,123,1.2,0.0,61,0.00,CLR,FEW,0.00,WeatherDisplay:10.37,2013-02-03 01:32:00,
2013-02-02 20:37:00,21.7,9.2,30.05,NW,323,2.3,2.3,58,0.00,CLR,FEW,0.00,WeatherDisplay:10.37,2013-02-03 01:37:00,
2013-02-02 20:42:00,21.8,9.7,30.05,NNE,21,1.2,1.2,59,0.00,CLR,FEW,0.00,WeatherDisplay:10.37,2013-02-03 01:42:00,
2013-02-02 20:47:00,21.7,9.6,30.05,NNE,27,3.5,3.5,59,0.00,CLR,FEW,0.00,WeatherDisplay:10.37,2013-02-03 01:47:00,
2013-02-02 20:52:00,21.8,9.7,30.06,North,355,3.5,3.5,59,0.00,CLR,FEW,0.00,WeatherDisplay:10.37,2013-02-03 01:52:00,
2013-02-02 20:57:00,21.8,10.0,30.06,West,259,3.5,3.5,60,0.00,CLR,FEW,0.00,WeatherDisplay:10.37,2013-02-03 01:57:00,
2013-02-02 21:02:00,21.7,9.6,30.06,East,95,3.5,0.0,59,0.00,CLR,FEW,0.00,WeatherDisplay:10.37,2013-02-03 02:02:00,
2013-02-02 21:07:00,21.7,9.6,30.06,ESE,102,2.0,2.0,59,0.00,CLR,FEW,0.00,WeatherDisplay:10.37,2013-02-03 02:07:00,
2013-02-02 21:12:00,21.6,9.5,30.06,ESE,107,0.0,0.0,59,0.00,CLR,FEW,0.00,WeatherDisplay:10.37,2013-02-03 02:12:00,
2013-02-02 21:17:00,21.6,9.8,30.06,ENE,78,2.3,0.0,60,0.00,CLR,FEW,0.00,WeatherDisplay:10.37,2013-02-03 02:17:00,
2013-02-02 21:22:00,21.6,9.8,30.06,NNW,332,1.2,0.0,60,0.00,CLR,FEW,0.00,WeatherDisplay:10.37,2013-02-03 02:22:00,
2013-02-02 21:27:00,21.6,10.2,30.06,NNW,331,0.0,0.1,61,0.00,CLR,FEW,0.00,WeatherDisplay:10.37,2013-02-03 02:27:00,
2013-02-02 21:32:00,21.5,10.1,30.06,NW,323,3.0,3.0,61,0.00,CLR,FEW,0.00,WeatherDisplay:10.37,2013-02-03 02:32:00,
2013-02-02 21:37:00,21.5,10.8,30.06,ENE,73,3.5,3.5,63,0.00,CLR,FEW,0.00,WeatherDisplay:10.37,2013-02-03 02:37:00,
2013-02-02 21:42:00,21.4,11.1,30.06,NW,318,1.0,1.0,64,0.00,CLR,FEW,0.00,WeatherDisplay:10.37,2013-02-03 02:42:00,
2013-02-02 21:46:00,21.3,11.0,30.06,South,189,4.6,4.6,64,0.00,CLR,FEW,0.00,WeatherDisplay:10.37,2013-02-03 02:46:00,
2013-02-02 21:51:00,21.3,11.7,30.06,WSW,251,3.5,3.5,66,0.00,CLR,FEW,0.00,WeatherDisplay:10.37,2013-02-03 02:51:00,
2013-02-02 21:56:00,21.2,12.3,30.06,NNW,347,1.2,1.2,68,0.00,CLR,FEW,0.00,WeatherDisplay:10.37,2013-02-03 02:56:00,
2013-02-02 22:01:00,21.0,12.7,30.06,NNW,332,1.2,1.2,70,0.00,CLR,FEW,0.00,WeatherDisplay:10.37,2013-02-03 03:01:00,
2013-02-02 22:06:00,20.8,12.9,30.06,West,264,1.2,1.2,71,0.00,CLR,FEW,0.00,WeatherDisplay:10.37,2013-02-03 03:06:00,
2013-02-02 22:11:00,20.7,13.4,30.06,NE,40,1.2,1.2,73,0.00,CLR,FEW,0.00,WeatherDisplay:10.37,2013-02-03 03:11:00,
2013-02-02 22:16:00,20.6,13.6,30.06,SE,145,1.2,1.2,74,0.00,CLR,FEW,0.00,WeatherDisplay:10.37,2013-02-03 03:16:00,
2013-02-02 22:21:00,20.4,14.0,30.06,NW,322,1.2,1.2,76,0.00,CLR,FEW,0.00,WeatherDisplay:10.37,2013-02-03 03:21:00,
2013-02-02 22:26:00,20.3,14.2,30.06,NNW,329,2.0,2.0,77,0.00,CLR,FEW,0.00,WeatherDisplay:10.37,2013-02-03 03:26:00,
2013-02-02 22:31:00,20.2,14.4,30.06,NW,326,0.0,0.0,78,0.00,CLR,FEW,0.00,WeatherDisplay:10.37,2013-02-03 03:31:00,
2013-02-02 22:36:00,20.1,14.9,30.06,NNW,338,2.3,2.3,80,0.00,CLR,FEW,0.00,WeatherDisplay:10.37,2013-02-03 03:36:00,
2013-02-02 22:41:00,20.0,14.8,30.06,SSW,193,1.2,1.2,80,0.00,CLR,FEW,0.00,WeatherDisplay:10.37,2013-02-03 03:41:00,
2013-02-02 22:46:00,19.8,14.6,30.06,South,188,2.3,2.3,80,0.00,CLR,FEW,0.00,WeatherDisplay:10.37,2013-02-03 03:46:00,
2013-02-02 22:51:00,19.7,14.8,30.06,NNW,327,1.2,1.2,81,0.00,CLR,FEW,0.00,WeatherDisplay:10.37,2013-02-03 03:51:00,
2013-02-02 22:56:00,19.7,14.8,30.06,North,350,2.3,0.0,81,0.00,CLR,FEW,0.00,WeatherDisplay:10.37,2013-02-03 03:56:00,
2013-02-02 23:01:00,19.6,15.0,30.06,North,350,1.2,1.2,82,0.00,CLR,FEW,0.00,WeatherDisplay:10.37,2013-02-03 04:01:00,
2013-02-02 23:06:00,19.5,14.9,30.06,North,355,1.0,0.0,82,0.00,CLR,FEW,0.00,WeatherDisplay:10.37,2013-02-03 04:06:00,
2013-02-02 23:11:00,19.5,14.9,30.06,North,355,0.0,0.0,82,0.00,CLR,FEW,0.00,WeatherDisplay:10.37,2013-02-03 04:11:00,
2013-02-02 23:16:00,19.4,15.1,30.06,North,355,2.3,0.0,83,0.00,CLR,FEW,0.00,WeatherDisplay:10.37,2013-02-03 04:16:00,
2013-02-02 23:21:00,19.4,15.1,30.07,East,83,1.2,1.2,83,0.00,CLR,FEW,0.00,WeatherDisplay:10.37,2013-02-03 04:21:00,
2013-02-02 23:26:00,19.3,15.0,30.07,East,83,2.0,2.0,83,0.00,CLR,FEW,0.00,WeatherDisplay:10.37,2013-02-03 04:26:00,
2013-02-02 23:31:00,19.3,15.3,30.07,East,100,1.2,1.2,84,0.00,CLR,FEW,0.00,WeatherDisplay:10.37,2013-02-03 04:31:00,
2013-02-02 23:36:00,19.2,15.2,30.07,East,100,2.0,2.0,84,0.00,CLR,FEW,0.00,WeatherDisplay:10.37,2013-02-03 04:36:00,
2013-02-02 23:41:00,19.2,15.4,30.07,East,100,2.3,0.0,85,0.00,CLR,FEW,0.00,WeatherDisplay:10.37,2013-02-03 04:41:00,
2013-02-02 23:46:00,19.2,15.4,30.07,WSW,242,1.2,1.2,85,0.00,CLR,FEW,0.00,WeatherDisplay:10.37,2013-02-03 04:46:00,
2013-02-02 23:51:00,19.1,15.3,30.07,WSW,242,1.2,0.0,85,0.00,CLR,FEW,0.00,WeatherDisplay:10.37,2013-02-03 04:51:00,
2013-02-02 23:56:00,19.1,15.3,30.07,WSW,242,0.0,0.0,85,0.00,CLR,FEW,0.00,WeatherDisplay:10.37,2013-02-03 04:56:00,